Location: Newark
(25.4297°S, 49.2719°W)
Time: 01:21:11
(UTC+00:00)

Vanguard 1 Rocket - Pass Details

Date: 24 November 2019
Orbit: 650 x 4226 km, 34.3° (Epoch: 05 December)

Event Time Altitude Azimuth Distance (km) Brightness Sun altitude
Rises 15:05:47 0° 305° (NW) 5,490 11.4 85.1°
Reaches altitude 10° 15:08:39 10° 306° (NW) 4,846 11.3 85.0°
Maximum altitude 15:24:19 81° 31° (NNE) 3,471 12.8 83.2°
Drops below altitude 10° 15:50:30 10° 114° (ESE) 7,442 12.0 78.2°
Sets 15:56:19 0° 114° (ESE) 8,406 12.2 77.0°
